Location: Laterina
(43.5167°N, 11.7167°E)
Time: 10:30:27
(UTC+00:00)

Cosmos 2026 Rocket - Visible Passes

Search period start: 17 January 2021 00:00
Search period end: 27 January 2021 00:00
Orbit: 939 x 1001 km, 82.9° (Epoch: 16 January)

Date Brightness Start Highest point End Pass type
(mag) Time Alt. Az. Time Alt. Az. Time Alt. Az.
17 Jan 5.9 04:52:16 10° NNE 04:57:40 29° ENE 05:03:04 10° SE visible
17 Jan 4.4 18:22:01 10° SSE 18:26:17 43° SE 18:26:17 43° SE visible
17 Jan 6.2 20:08:45 10° WSW 20:10:59 18° WSW 20:10:59 18° WSW visible
18 Jan 5.0 05:15:38 10° N 05:21:44 48° ENE 05:27:51 10° SSE visible
18 Jan 5.4 17:04:20 10° ESE 17:07:17 14° ENE 17:07:23 14° ENE visible
18 Jan 3.8 18:45:31 10° S 18:51:36 86° W 18:52:06 77° N visible
18 Jan 6.6 20:34:51 10° W 20:36:49 13° WNW 20:36:49 13° WNW visible
19 Jan 6.7 03:56:18 10° NNE 03:59:21 14° ENE 04:02:22 10° E visible
19 Jan 4.2 05:39:16 10° N 05:45:38 81° E 05:52:01 10° S visible
19 Jan 4.8 17:25:50 10° SE 17:30:38 25° E 17:33:53 16° NE visible
19 Jan 4.6 19:09:35 10° SSW 19:15:29 50° WNW 19:18:42 27° NNW visible
20 Jan 6.2 04:18:44 10° NNE 04:23:40 23° ENE 04:28:36 10° ESE visible
20 Jan 4.1 06:03:10 10° NNW 06:09:23 60° W 06:15:37 10° S visible
20 Jan 4.2 17:48:26 10° SSE 17:54:07 43° E 17:59:55 10° NNE visible
20 Jan 5.6 19:34:16 10° SW 19:39:32 30° WNW 19:44:53 10° NNW visible
21 Jan 5.4 04:41:56 10° N 04:47:49 39° ENE 04:53:41 10° SE visible
21 Jan 3.8 18:11:42 10° S 18:17:45 76° E 18:23:57 10° N visible
21 Jan 6.3 19:59:47 10° WSW 20:03:46 18° WNW 20:07:49 10° NNW visible
22 Jan 6.9 03:24:00 10° NE 03:25:13 11° ENE 03:26:25 10° ENE visible
22 Jan 4.5 05:05:27 10° N 05:11:47 65° E 05:18:07 10° SSE visible
22 Jan 5.1 16:52:44 10° SE 16:56:57 20° E 17:01:12 10° NE visible
22 Jan 4.3 18:35:32 10° SSW 18:41:34 64° W 18:47:45 10° N visible
23 Jan 6.5 03:45:19 10° NNE 03:49:38 19° ENE 03:53:57 10° ESE visible
23 Jan 4.0 05:29:14 10° N 05:35:36 76° W 05:41:57 10° S visible
23 Jan 4.5 17:14:58 10° SSE 17:20:22 34° E 17:25:52 10° NNE visible
23 Jan 5.3 18:59:56 10° SW 19:05:33 37° WNW 19:11:16 10° N visible
24 Jan 5.8 04:08:17 10° N 04:13:51 31° ENE 04:19:25 10° SE visible
24 Jan 4.4 05:53:17 10° NNW 05:59:15 44° W 06:05:14 10° SSW visible
24 Jan 3.9 17:37:59 10° S 17:43:57 60° E 17:50:03 10° NNE visible
24 Jan 6.1 19:25:02 10° WSW 19:29:42 22° WNW 19:34:27 10° NNW visible
25 Jan 4.8 04:31:42 10° N 04:37:54 52° ENE 04:44:06 10° SSE visible
25 Jan 4.0 18:01:35 10° S 18:07:41 81° W 18:13:57 10° N visible
25 Jan 6.7 19:51:20 10° W 19:54:03 13° WNW 19:56:46 10° NW visible
26 Jan 6.7 03:12:06 10° NNE 03:15:34 15° ENE 03:19:01 10° E visible
26 Jan 4.1 04:55:23 10° N 05:01:47 87° E 05:08:10 10° S visible
26 Jan 4.8 16:41:38 10° SE 16:46:40 27° E 16:51:45 10° NNE visible
26 Jan 4.9 18:25:43 10° SSW 18:31:35 47° WNW 18:37:36 10° N visible
